Temp
-6 -5 -6 -6 -6 -6 -6 -7 -7 -7 -7 -7 -7 -8 -8 -8 -8 -8 -8 -8 -7 -7 -7 -8 -8 -8 -7 -8 -8 -7 -8 -8 -8 -7 -7 -7 -7 -7 -7 -7 -7 -7 -7
-5 -6 -6 -6 -6 -6 -7 -7 -7 -7 -7 -7 -8 -8 -8 -8 -8 -8 -8 -8 -8 -8 -8 -8 -8 -8 -8 -8 -8 -7 -7 -8 -8 -8 -8 -8 -7 -7 -8 -7 -7 -7 -7
-6 -6 -6 -6 -6 -7 -7 -7 -7 -7 -7 -8 -8 -8 -8 -8 -8 -8 -8 -8 -8 -8 -8 -8 -8 -8 -8 -8 -8 -8 -7 -8 -8 -7 -8 -8 -8 -8 -8 -7 -8 -8 -7
-6 -6 -6 -7 -7 -7 -7 -7 -7 -7 -8 -8 -8 -8 -8 -8 -8 -8 -8 -8 -8 -8 -9 -9 -8 -8 -8 -8 -8 -8 -7 -7 -7 -7 -7 -7 -7 -7 -7 -7 -8 -8 -8
-7 -6 -7 -7 -7 -7 -7 -7 -7 -8 -8 -8 -8 -8 -8 -8 -8 -8 -8 -8 -8 -8 -8 -8 -8 -8 -8 -8 -8 -8 -8 -7 -8 -7 -7 -7 -8 -7 -7 -7 -7 -8 -8
-7 -7 -7 -7 -7 -7 -7 -8 -8 -7 -7 -7 -7 -7 -7 -8 -8 -8 -8 -8 -8 -8 -8 -8 -8 -8 -8 -8 -8 -7 -8 -7 -7 -7 -8 -8 -8 -8 -8 -7 -7 -8 -8
-7 -7 -7 -7 -7 -7 -8 -7 -7 -7 -7 -7 -7 -7 -7 -7 -7 -7 -8 -8 -8 -8 -8 -8 -8 -8 -9 -9 -8 -8 -8 -8 -7 -8 -8 -8 -8 -8 -8 -8 -8 -8 -8
-7 -7 -7 -7 -7 -7 -7 -7 -7 -7 -7 -7 -7 -7 -7 -8 -7 -7 -8 -8 -8 -9 -9 -8 -8 -7 -7 -8 -8 -8 -8 -8 -8 -7 -8 -8 -8 -8 -8 -8 -8 -8 -8
-7 -7 -7 -8 -8 -7 -7 -7 -7 -7 -7 -7 -7 -7 -7 -7 -8 -8 -8 -8 -8 -8 -8 -8 -8 -7 -7 -7 -8 -8 -7 -7 -7 -8 -8 -8 -8 -8 -9 -8 -9 -9 -9
-7 -7 -7 -7 -7 -7 -7 -7 -7 -7 -7 -7 -7 -7 -7 -7 -8 -7 -7 -8 -8 -8 -8 -8 -8 -7 -7 -7 -8 -8 -8 -8 -8 -8 -7 -8 -8 -8 -8 -8 -8 -8 -8
-8 -7 -7 -7 -7 -7 -7 -7 -7 -7 -7 -7 -7 -7 -8 -8 -8 -8 -7 -8 -8 -8 -8 -8 -8 -8 -8 -8 -8 -8 -8 -8 -8 -8 -8 -8 -8 -8 -8 -8 -8 -8 -8
-7 -7 -7 -7 -7 -7 -7 -7 -7 -7 -7 -7 -7 -8 -8 -8 -7 -7 -7 -7 -8 -8 -8 -8 -8 -8 -8 -8 -8 -8 -8 -8 -8 -8 -8 -8 -8 -7 -8 -8 -8 -8 -8
-7 -7 -7 -7 -7 -7 -7 -7 -7 -7 -7 -7 -7 -7 -8 -8 -7 -7 -7 -7 -8 -8 -8 -8 -8 -8 -8 -8 -8 -8 -8 -8 -8 -8 -8 -8 -8 -8 -7 -7 -7 -8 -8
-6 -6 -6 -7 -7 -7 -7 -7 -7 -7 -7 -7 -7 -7 -7 -7 -7 -7 -7 -7 -7 -7 -8 -8 -8 -8 -8 -8 -8 -8 -8 -8 -8 -8 -8 -7 -7 -7 -7 -7 -7 -7 -7
-5 -5 -6 -6 -6 -6 -6 -6 -6 -7 -7 -7 -7 -7 -7 -7 -7 -7 -7 -7 -7 -7 -7 -7 -8 -8 -8 -8 -8 -8 -8 -8 -8 -8 -8 -8 -8 -7 -7 -7 -7 -8 -8
-5 -5 -6 -6 -6 -6 -6 -6 -6 -6 -7 -7 -7 -7 -7 -7 -7 -7 -8 -8 -8 -7 -8 -8 -8 -8 -8 -8 -8 -8 -8 -8 -8 -8 -8 -8 -8 -8 -8 -8 -8 -8 -8
-5 -5 -5 -6 -6 -6 -6 -6 -6 -6 -6 -7 -7 -6 -7 -7 -7 -7 -7 -8 -8 -8 -8 -8 -8 -8 -8 -8 -8 -8 -8 -8 -8 -8 -8 -9 -9 -9 -9 -9 -9 -9 -9
-5 -5 -5 -5 -6 -6 -6 -6 -6 -6 -6 -6 -6 -6 -7 -7 -7 -7 -7 -8 -8 -8 -8 -7 -7 -8 -8 -8 -8 -8 -8 -9 -9 -8 -8 -8 -8 -8 -8 -9 -9 -9 -9
-5 -5 -5 -5 -5 -5 -5 -6 -6 -6 -6 -6 -6 -7 -7 -7 -7 -7 -7 -8 -8 -8 -8 -8 -7 -7 -8 -9 -9 -9 -9 -9 -9 -8 -8 -7 -8 -8 -9 -9 -9 -9 -9
-5 -5 -5 -5 -5 -5 -5 -5 -5 -6 -6 -6 -6 -6 -7 -7 -7 -7 -7 -8 -8 -8 -8 -8 -8 -8 -8 -9 -9 -9 -10 -10 -9 -9 -9 -8 -8 -8 -8 -8 -8 -8 -9
-5 -5 -5 -5 -5 -5 -5 -5 -5 -6 -6 -6 -6 -6 -6 -7 -7 -7 -7 -7 -8 -8 -8 -7 -7 -8 -10 -10 -10 -10 -9 -8 -8 -9 -9 -8 -8 -8 -8 -9 -9 -9 -9
-4 -5 -5 -5 -5 -5 -5 -5 -5 -5 -5 -5 -6 -6 -6 -6 -7 -7 -7 -7 -8 -8 -8 -7 -9 -9 -9 -9 -9 -9 -9 -9 -9 -9 -9 -8 -8 -7 -7 -8 -9 -10 -9
-4 -4 -4 -4 -4 -5 -5 -5 -5 -5 -5 -5 -6 -6 -6 -6 -7 -7 -7 -8 -8 -8 -8 -9 -9 -9 -9 -9 -9 -9 -9 -10 -10 -9 -10 -10 -9 -8 -8 -8 -8 -8 -9
-4 -4 -4 -4 -4 -4 -4 -5 -5 -5 -5 -6 -6 -6 -6 -6 -7 -7 -8 -8 -8 -8 -9 -9 -9 -9 -9 -9 -9 -10 -10 -10 -10 -10 -10 -10 -9 -9 -9 -9 -9 -9 -8
-4 -4 -4 -4 -4 -4 -4 -4 -5 -5 -5 -6 -6 -6 -6 -7 -7 -7 -8 -8 -9 -9 -9 -9 -10 -9 -10 -10 -9 -10 -10 -10 -10 -10 -10 -10 -10 -9 -8 -8 -9 -9 -9
-4 -4 -4 -4 -4 -4 -4 -4 -5 -5 -5 -6 -6 -6 -6 -7 -7 -7 -8 -8 -9 -9 -9 -10 -9 -10 -10 -10 -9 -10 -10 -10 -9 -9 -10 -10 -11 -10 -9 -8 -9 -9 -9
Height
5906 5906 5906 5906 5907 5908 5908 5909 5910 5909 5910 5910 5911 5912 5912 5912 5913 5913 5913 5914 5914 5914 5914 5913 5914 5914 5914 5914 5913 5913 5913 5913 5913 5913 5914 5913 5914 5913 5913 5913 5913 5912 5912
5907 5907 5908 5908 5909 5909 5909 5910 5910 5910 5910 5912 5913 5913 5913 5913 5914 5914 5915 5915 5915 5915 5914 5914 5915 5915 5915 5915 5914 5914 5914 5914 5914 5914 5914 5914 5914 5914 5914 5914 5914 5913 5913
5907 5908 5909 5910 5911 5911 5911 5912 5913 5912 5913 5914 5914 5914 5915 5915 5915 5915 5915 5915 5915 5915 5916 5916 5916 5915 5915 5915 5915 5915 5915 5915 5914 5914 5914 5914 5914 5914 5914 5914 5915 5915 5915
5909 5910 5911 5912 5913 5914 5914 5914 5915 5915 5916 5916 5916 5916 5915 5915 5915 5915 5915 5916 5916 5916 5917 5917 5916 5916 5916 5915 5916 5916 5915 5915 5915 5916 5915 5915 5915 5915 5915 5914 5914 5915 5915
5910 5911 5912 5913 5914 5915 5915 5916 5917 5917 5917 5917 5917 5916 5916 5915 5915 5915 5914 5915 5915 5916 5915 5915 5916 5916 5915 5915 5915 5915 5916 5916 5916 5917 5917 5917 5917 5916 5915 5915 5915 5915 5915
5911 5912 5913 5914 5915 5916 5917 5918 5918 5918 5918 5918 5917 5917 5916 5915 5915 5914 5914 5914 5914 5915 5914 5914 5915 5914 5914 5914 5915 5916 5917 5917 5917 5917 5917 5917 5916 5915 5915 5915 5914 5913 5913
5911 5913 5914 5915 5916 5917 5918 5919 5919 5920 5920 5919 5918 5917 5917 5916 5915 5915 5915 5915 5916 5915 5914 5913 5912 5912 5913 5914 5916 5917 5917 5918 5917 5916 5916 5916 5914 5912 5912 5912 5912 5911 5910
5912 5913 5915 5916 5917 5918 5919 5920 5920 5921 5920 5920 5919 5919 5920 5919 5919 5918 5917 5917 5917 5916 5914 5912 5910 5910 5911 5912 5915 5916 5916 5917 5916 5916 5915 5913 5909 5908 5909 5909 5910 5910 5909
5913 5914 5915 5916 5917 5918 5919 5920 5921 5921 5921 5921 5921 5922 5922 5922 5921 5920 5919 5918 5918 5917 5916 5915 5912 5911 5912 5913 5916 5916 5916 5917 5916 5914 5913 5913 5911 5908 5908 5909 5907 5905 5904
5913 5914 5915 5916 5917 5918 5919 5921 5921 5921 5923 5924 5924 5924 5924 5923 5923 5922 5922 5921 5921 5920 5919 5917 5916 5914 5914 5915 5916 5917 5917 5916 5916 5916 5915 5914 5912 5909 5908 5908 5906 5905 5903
5913 5915 5916 5917 5918 5919 5920 5922 5922 5923 5925 5926 5926 5926 5926 5925 5925 5924 5924 5924 5924 5923 5922 5921 5920 5918 5918 5918 5918 5918 5918 5918 5918 5917 5916 5914 5912 5911 5910 5907 5906 5904 5903
5914 5915 5917 5918 5920 5921 5921 5923 5924 5925 5927 5927 5927 5928 5928 5927 5927 5927 5927 5926 5926 5925 5924 5923 5921 5921 5921 5921 5920 5919 5919 5918 5916 5916 5914 5913 5911 5909 5907 5906 5904 5902 5901
5914 5915 5917 5919 5921 5922 5923 5925 5926 5927 5929 5930 5930 5930 5930 5930 5930 5930 5929 5928 5927 5925 5924 5923 5924 5924 5924 5923 5921 5920 5918 5917 5916 5914 5912 5910 5908 5906 5904 5903 5901 5900 5898
5916 5916 5918 5920 5922 5924 5926 5927 5928 5929 5930 5931 5932 5932 5932 5932 5931 5931 5930 5929 5928 5926 5925 5925 5925 5925 5924 5922 5920 5919 5917 5915 5914 5912 5910 5908 5906 5903 5902 5900 5898 5896 5894
5917 5918 5920 5921 5924 5926 5928 5929 5930 5931 5932 5932 5933 5933 5933 5933 5932 5931 5931 5930 5928 5927 5927 5926 5925 5923 5922 5921 5919 5917 5915 5913 5911 5910 5908 5906 5904 5902 5900 5897 5895 5892 5890
5918 5920 5921 5923 5926 5928 5930 5932 5933 5933 5933 5934 5934 5934 5934 5934 5933 5932 5931 5930 5929 5927 5926 5925 5924 5923 5921 5920 5918 5916 5913 5911 5908 5906 5904 5902 5900 5898 5895 5893 5891 5888 5886
5919 5921 5922 5924 5927 5930 5932 5933 5934 5935 5935 5935 5935 5936 5936 5935 5934 5932 5931 5930 5929 5926 5925 5924 5923 5921 5920 5917 5915 5913 5911 5908 5906 5903 5900 5897 5895 5892 5890 5888 5885 5882 5879
5921 5923 5923 5926 5928 5931 5933 5934 5936 5936 5937 5937 5937 5937 5937 5936 5935 5933 5932 5931 5929 5927 5926 5923 5921 5920 5917 5914 5913 5911 5909 5907 5904 5901 5897 5893 5889 5886 5882 5879 5877 5876 5873
5923 5923 5925 5927 5930 5932 5934 5936 5937 5938 5937 5938 5938 5938 5937 5936 5936 5934 5933 5931 5929 5928 5926 5924 5922 5920 5917 5914 5912 5909 5907 5903 5900 5897 5894 5892 5887 5882 5878 5875 5873 5870 5867
5925 5926 5927 5929 5931 5933 5935 5936 5937 5938 5938 5939 5939 5938 5938 5937 5936 5935 5933 5931 5929 5927 5925 5922 5921 5916 5913 5913 5910 5905 5902 5901 5897 5893 5890 5887 5884 5879 5875 5871 5867 5863 5860
5926 5928 5929 5930 5932 5934 5935 5936 5937 5938 5939 5940 5940 5939 5939 5938 5937 5936 5934 5932 5929 5927 5924 5922 5920 5918 5915 5913 5908 5904 5901 5898 5894 5891 5887 5883 5880 5876 5870 5864 5861 5856 5853
5925 5926 5929 5931 5933 5934 5936 5937 5938 5938 5939 5940 5939 5939 5939 5938 5936 5935 5933 5931 5927 5925 5924 5922 5921 5917 5913 5904 5900 5895 5894 5896 5892 5887 5883 5878 5874 5870 5863 5856 5851 5848 5846
5925 5926 5928 5931 5932 5934 5935 5936 5937 5938 5939 5939 5939 5939 5939 5937 5936 5934 5932 5929 5926 5923 5922 5923 5920 5916 5910 5904 5897 5894 5893 5891 5890 5883 5880 5875 5870 5866 5859 5853 5846 5841 5836
5924 5926 5928 5930 5932 5933 5935 5936 5937 5937 5938 5938 5938 5939 5939 5937 5935 5933 5930 5928 5925 5924 5924 5922 5919 5915 5909 5901 5895 5893 5893 5893 5891 5885 5876 5872 5866 5860 5852 5845 5840 5835 5829
5924 5926 5928 5930 5931 5933 5934 5935 5936 5937 5938 5938 5938 5938 5938 5936 5934 5931 5929 5926 5923 5922 5922 5921 5916 5910 5908 5902 5896 5890 5887 5885 5881 5876 5873 5865 5857 5851 5842 5835 5830 5825 5822
5924 5925 5927 5929 5930 5932 5934 5935 5935 5936 5937 5937 5937 5937 5936 5935 5933 5930 5927 5924 5920 5921 5920 5917 5912 5909 5905 5901 5895 5885 5884 5881 5875 5868 5862 5857 5851 5843 5833 5827 5821 5817 5813
Wind_Speed
13 12 10 2 2 4 6 9 9 10 11 10 9 9 8 8 9 9 9 8 10 12 9 7 7 7 7 8 9 10 9 11 11 10 9 8 7 6 5 4 2 2 1
16 8 5 4 5 8 10 10 10 12 11 10 8 9 7 6 4 5 6 9 8 8 7 8 8 9 8 7 10 11 12 10 10 11 9 9 7 8 8 6 3 2 1
8 8 6 7 9 11 12 11 11 12 11 9 8 7 5 5 6 6 6 5 4 6 6 5 8 9 8 7 8 10 11 10 9 8 8 8 9 9 8 7 6 4 1
7 5 8 10 11 12 12 13 12 11 9 7 6 5 4 3 3 3 3 4 4 3 4 3 4 4 4 4 6 7 9 9 7 5 6 5 4 6 6 5 5 5 3
5 7 9 11 12 12 12 12 10 9 8 7 5 4 2 3 3 3 4 3 5 5 3 1 3 2 2 5 6 6 6 5 5 4 4 4 2 1 2 4 4 3 2
8 9 9 11 11 11 10 9 9 8 7 6 7 7 7 7 6 6 6 6 7 7 4 3 4 5 6 9 8 4 3 4 4 3 2 2 1 0 2 3 2 2 2
11 11 10 11 10 10 8 7 7 7 10 10 11 11 12 11 12 12 10 10 10 10 8 6 3 6 8 11 10 7 6 4 2 2 2 6 7 5 2 3 4 4 5
10 11 10 11 11 9 8 7 8 11 12 14 14 16 16 17 18 17 18 16 10 9 10 10 7 6 6 12 11 9 5 2 4 6 7 9 8 8 7 6 9 10 9
10 9 11 10 9 8 9 9 11 13 14 15 14 13 13 12 12 12 14 14 12 11 12 14 13 8 9 10 9 6 3 1 2 4 8 12 13 10 1 7 10 11 13
8 8 9 9 9 10 10 10 12 14 15 13 12 11 10 9 10 11 12 13 13 14 15 15 17 15 12 10 8 7 6 7 9 8 9 12 13 14 4 8 9 10 7
8 8 8 9 10 11 12 11 15 16 15 12 9 10 10 9 9 9 10 12 13 13 15 15 15 16 14 12 11 11 10 9 10 11 12 13 13 12 7 10 11 11 9
9 9 10 10 11 13 12 15 16 16 14 13 11 10 9 9 9 7 8 10 13 14 15 13 14 13 12 11 11 10 9 9 9 10 11 12 12 12 12 12 11 12 11
10 10 12 13 14 13 15 17 17 15 14 12 11 11 10 10 9 6 7 8 8 11 12 11 10 10 10 10 10 9 8 7 7 9 11 12 14 15 15 16 14 13 12
10 12 15 16 15 15 17 18 17 17 14 12 11 10 10 10 11 10 8 5 5 6 9 9 8 8 9 10 10 8 7 7 8 10 14 14 14 13 13 13 11 10 11
13 15 17 17 17 18 19 18 16 15 13 12 11 9 9 11 11 10 8 7 7 8 7 8 8 7 6 7 7 8 6 6 6 7 10 10 11 12 11 10 9 8 8
14 16 19 19 20 20 19 17 15 14 12 10 9 8 9 10 9 8 8 7 8 7 6 4 4 5 6 7 6 5 2 2 5 7 9 11 13 14 12 13 14 13 11
16 17 21 22 21 19 18 17 15 13 11 8 8 8 8 10 9 8 9 9 9 8 6 6 4 4 5 7 6 5 5 6 9 11 12 14 16 17 18 18 17 16 15
17 19 21 22 20 18 17 15 13 10 7 7 7 6 8 10 9 10 11 12 13 13 11 8 6 5 6 5 7 9 10 12 13 15 17 19 24 25 20 18 17 18 18
16 20 20 20 18 17 15 13 11 8 6 5 5 7 8 8 9 10 12 12 14 14 14 13 14 12 11 10 14 14 13 15 18 19 22 22 23 23 23 22 23 23 21
12 18 18 16 14 14 13 12 9 7 4 3 4 5 6 5 7 8 11 13 15 16 17 17 19 20 19 17 17 18 17 16 19 17 20 24 29 32 28 27 29 28 26
13 12 14 14 13 12 12 11 9 7 6 4 2 2 4 5 7 9 12 13 13 15 17 19 22 28 25 25 26 31 29 28 25 24 22 26 34 37 35 35 33 30 27
13 13 13 12 13 12 12 11 9 9 7 3 1 2 5 6 8 10 11 13 16 16 18 24 30 37 43 49 38 28 20 20 21 21 25 29 31 29 29 34 35 30 28
12 13 13 14 13 13 11 10 9 8 5 2 1 4 6 7 7 8 9 13 17 21 24 25 28 35 40 37 34 33 10 25 24 22 24 26 24 28 29 31 31 29 26
12 11 11 12 13 12 12 10 7 5 4 1 3 5 7 9 6 8 12 16 19 21 22 23 27 31 42 43 28 24 22 24 22 24 33 34 34 35 35 30 29 30 26
11 10 10 10 10 10 9 8 7 5 4 3 4 7 9 8 8 12 14 17 19 21 24 29 34 35 40 40 47 34 30 26 27 31 28 34 39 41 38 37 32 27 29
9 10 9 9 10 10 9 8 8 7 5 4 7 7 5 7 11 14 15 19 21 23 27 30 33 35 35 42 44 44 34 37 33 36 39 35 38 39 36 36 31 27 31
Wind_Direction
142 151 180 160 55 69 91 101 100 93 85 83 87 83 78 91 91 79 64 79 84 77 74 80 76 75 91 101 92 80 78 85 86 91 92 91 86 89 87 86 102 119 125
172 171 145 117 100 100 94 89 88 81 74 74 79 68 70 80 44 25 66 93 95 85 85 86 91 91 99 107 103 88 84 89 90 92 93 95 95 94 91 83 71 48 274
160 154 134 112 106 106 103 101 93 82 76 83 80 71 72 63 74 86 93 96 94 84 73 95 110 102 101 110 107 102 97 87 81 95 101 110 112 105 99 84 68 59 64
157 136 119 111 110 109 107 102 96 87 91 94 93 87 91 96 109 88 82 74 76 92 115 115 141 124 97 115 114 111 110 108 99 84 91 87 100 124 128 114 100 91 95
123 117 111 113 110 109 109 107 103 101 98 93 80 64 88 81 81 75 64 59 63 72 107 143 204 235 214 168 143 138 119 103 98 71 58 65 66 56 169 151 134 115 104
129 119 117 112 107 107 120 115 109 104 94 96 92 89 76 65 67 71 76 75 71 73 66 67 126 155 167 173 174 151 131 136 113 92 68 73 107 16 321 276 184 191 212
135 129 124 124 126 132 133 126 122 105 101 97 93 85 80 83 88 82 77 78 79 79 74 70 100 157 174 174 173 159 146 107 99 99 348 328 294 269 257 300 292 268 258
140 143 147 145 147 151 140 131 118 104 104 101 94 93 82 81 88 85 79 86 73 61 71 78 91 136 150 173 171 173 172 227 305 303 318 350 352 256 254 269 297 291 279
150 153 152 158 147 148 131 122 112 111 115 108 95 88 78 84 82 82 88 86 83 82 65 59 57 87 117 125 169 198 203 265 87 41 9 9 23 35 255 303 301 288 259
159 161 155 149 144 133 126 122 119 123 114 108 92 93 86 84 84 81 78 78 75 71 65 58 60 70 91 102 100 86 76 59 43 31 18 16 14 11 56 0 337 352 359
168 169 154 146 141 135 133 129 127 124 116 112 106 96 93 87 80 85 78 76 74 68 62 57 58 66 74 81 76 61 54 39 26 14 9 6 6 12 350 337 345 350 340
168 170 152 145 146 145 141 134 129 125 119 116 111 96 86 83 80 76 80 80 71 62 57 58 56 56 58 58 53 49 39 26 17 16 11 5 2 359 353 349 343 341 333
153 155 146 150 154 150 145 137 131 129 127 120 107 95 83 74 71 60 57 59 67 69 53 49 52 62 62 54 50 46 40 26 16 7 4 359 354 351 348 347 345 336 327
144 145 147 149 152 147 142 137 135 131 128 122 103 93 82 69 60 47 39 43 32 43 49 39 37 41 47 45 36 26 20 9 2 2 355 345 339 334 336 335 336 331 323
142 144 143 144 143 142 143 142 137 129 123 110 99 89 72 57 47 36 24 10 4 14 24 22 20 14 21 26 16 347 328 336 342 330 329 337 336 332 330 326 321 309 306
140 141 138 141 147 148 146 143 139 129 121 112 100 73 53 43 28 19 9 5 356 343 346 347 0 3 346 352 348 358 350 317 329 326 338 342 342 338 340 337 330 323 316
144 144 144 150 154 152 152 147 137 130 120 107 80 69 53 40 29 42 47 40 24 353 308 287 283 297 307 316 310 313 332 338 342 338 342 343 342 339 339 341 337 329 321
152 152 153 157 159 158 152 143 133 126 119 102 93 73 57 62 62 60 51 49 39 40 43 50 33 7 320 299 301 316 334 340 338 336 332 333 333 324 316 317 318 318 316
161 162 161 163 163 159 157 149 142 134 126 107 89 68 62 64 45 36 41 33 26 17 9 3 356 337 317 315 314 329 335 329 329 335 337 332 339 340 333 324 316 310 310
158 167 167 164 164 164 166 164 160 151 134 120 92 68 50 36 31 10 2 357 359 352 349 342 333 321 315 318 317 322 327 326 322 335 338 331 329 330 327 324 320 315 310
157 158 172 173 167 173 178 176 171 167 165 150 87 44 0 349 343 341 341 343 338 342 330 320 325 329 321 308 305 300 299 305 308 325 329 331 326 326 322 316 308 305 302
163 164 168 172 178 177 181 180 180 177 162 163 140 333 342 348 345 334 331 333 332 331 326 334 342 341 341 329 346 11 310 332 330 337 339 330 322 323 330 329 319 298 302
161 170 176 180 177 178 181 183 186 183 182 204 302 316 324 329 327 340 342 329 324 323 329 342 348 350 349 359 11 29 50 3 357 337 339 335 329 322 328 331 334 320 302
158 163 173 179 183 183 185 186 183 177 170 207 287 294 302 316 326 333 329 324 318 321 336 348 352 350 347 357 1 32 16 6 360 342 334 331 338 329 329 324 322 321 317
160 165 174 181 182 184 182 180 181 171 177 223 269 282 286 300 319 330 325 324 324 334 350 353 354 353 356 355 360 346 353 355 345 341 338 324 325 327 326 326 315 323 319
181 182 186 188 189 187 180 183 181 172 180 220 253 269 278 306 321 322 329 334 335 348 353 351 349 350 335 357 2 7 353 348 341 335 329 322 319 321 316 322 320 320 317